• In Uzbekistan
  • List of Countries
  • For 7 days
  • Water Temperature
  • Satellite Maps
  • Weather Map
  • Weather Widgets
  • user-avatar
    Login

    Hourly Weather Midlothian

    Today, 11 December, Monday

    Time Temperature Precipitation Wind Pressure Humidity
    00:00 -7°C° 0 mm 3 mps 714 mmHg 75%
    01:00 -6°C° 0 mm 3 mps 714 mmHg 75%
    02:00 -6°C° 0 mm 3 mps 715 mmHg 75%
    03:00 -6°C° 0 mm 3 mps 715 mmHg 75%
    04:00 -6°C° 0 mm 3 mps 715 mmHg 76%
    05:00 -6°C° 0 mm 3 mps 716 mmHg 78%
    06:00 -6°C° 0 mm 3 mps 716 mmHg 81%
    07:00 -6°C° 0 mm 3 mps 716 mmHg 84%
    08:00 -5°C° 0 mm 2 mps 717 mmHg 87%
    09:00 -5°C° 0 mm 2 mps 717 mmHg 90%
    10:00 -4°C° 0 mm 2 mps 718 mmHg 87%
    11:00 -3°C° 0 mm 2 mps 718 mmHg 84%
    12:00 -2°C° 0 mm 2 mps 719 mmHg 81%
    13:00 -2°C° 0 mm 2 mps 719 mmHg 83%
    14:00 -2°C° 0 mm 2 mps 720 mmHg 86%
    15:00 -3°C° 0 mm 2 mps 720 mmHg 88%
    16:00 -4°C° 0 mm 3 mps 721 mmHg 89%
    17:00 -4°C° 0 mm 3 mps 722 mmHg 90%
    18:00 -4°C° 0 mm 3 mps 722 mmHg 91%
    19:00 -4°C° 0 mm 3 mps 723 mmHg 91%
    20:00 -4°C° 0 mm 3 mps 724 mmHg 91%
    21:00 -4°C° 0 mm 3 mps 724 mmHg 91%
    22:00 -5°C° 0 mm 3 mps 725 mmHg 91%
    23:00 -5°C° 0 mm 3 mps 725 mmHg 91%

    Tomorrow, 12 December, Tuesday

    Time Temperature Precipitation Wind Pressure Humidity
    00:00 -5°C° 0 mm 3 mps 725 mmHg 91%
    01:00 -5°C° 0 mm 3 mps 726 mmHg 91%
    02:00 -5°C° 0 mm 3 mps 726 mmHg 91%
    03:00 -5°C° 0 mm 3 mps 727 mmHg 90%
    04:00 -5°C° 0 mm 3 mps 727 mmHg 90%
    05:00 -5°C° 0 mm 3 mps 727 mmHg 90%
    06:00 -5°C° 0 mm 3 mps 727 mmHg 89%
    07:00 -5°C° 0 mm 3 mps 727 mmHg 89%
    08:00 -5°C° 0 mm 3 mps 727 mmHg 89%
    09:00 -5°C° 0 mm 3 mps 727 mmHg 88%
    10:00 -4°C° 0 mm 4 mps 727 mmHg 86%
    11:00 -3°C° 0 mm 4 mps 727 mmHg 83%
    12:00 -2°C° 0 mm 4 mps 727 mmHg 80%
    13:00 -2°C° 0 mm 4 mps 727 mmHg 84%
    14:00 -1°C° 0 mm 5 mps 726 mmHg 88%
    15:00 -1°C° 0 mm 5 mps 726 mmHg 92%
    16:00 -1°C° 0.3 mm 5 mps 725 mmHg 91%
    17:00 0°C° 0.3 mm 5 mps 725 mmHg 91%
    18:00 -1°C° 0.3 mm 6 mps 724 mmHg 91%
    19:00 -1°C° 0.1 mm 6 mps 723 mmHg 92%
    20:00 +1°C° 0.1 mm 6 mps 723 mmHg 92%
    21:00 0°C° 0.1 mm 7 mps 723 mmHg 92%
    22:00 -1°C° 0 mm 6 mps 723 mmHg 91%
    23:00 -1°C° 0 mm 6 mps 723 mmHg 90%

    Day after tomorrow, 13 December, Wednesday

    Time Temperature Precipitation Wind Pressure Humidity
    00:00 -2°C° 0 mm 6 mps 723 mmHg 89%
    01:00 -1°C° 0 mm 5 mps 723 mmHg 89%
    02:00 -1°C° 0 mm 5 mps 723 mmHg 90%
    03:00 -1°C° 0 mm 5 mps 722 mmHg 91%
    04:00 -1°C° 0.2 mm 5 mps 722 mmHg 91%
    05:00 -1°C° 0.2 mm 6 mps 721 mmHg 92%
    06:00 -1°C° 0.2 mm 6 mps 721 mmHg 92%
    07:00 -1°C° 0.1 mm 6 mps 720 mmHg 92%
    08:00 -1°C° 0.1 mm 7 mps 720 mmHg 91%
    09:00 -1°C° 0.1 mm 7 mps 719 mmHg 91%
    10:00 -1°C° 0.2 mm 8 mps 719 mmHg 87%
    11:00 -1°C° 0.2 mm 8 mps 718 mmHg 83%
    12:00 0°C° 0.2 mm 8 mps 718 mmHg 79%
    13:00 -1°C° 0.1 mm 7 mps 718 mmHg 80%
    14:00 -2°C° 0.1 mm 7 mps 718 mmHg 80%
    15:00 -2°C° 0.1 mm 6 mps 717 mmHg 80%
    16:00 -2°C° 0.1 mm 6 mps 717 mmHg 82%
    17:00 -3°C° 0.1 mm 7 mps 716 mmHg 83%
    18:00 -3°C° 0.1 mm 7 mps 715 mmHg 85%
    19:00 -3°C° 0.4 mm 7 mps 714 mmHg 85%
    20:00 -3°C° 0.4 mm 7 mps 713 mmHg 86%
    21:00 -4°C° 0.4 mm 8 mps 713 mmHg 87%
    22:00 -3°C° 0 mm 7 mps 713 mmHg 85%
    23:00 -4°C° 0 mm 7 mps 713 mmHg 83%

    14 December, Thursday

    Time Temperature Precipitation Wind Pressure Humidity
    00:00 -5°C° 0 mm 6 mps 712 mmHg 81%
    01:00 -5°C° 0 mm 6 mps 713 mmHg 81%
    02:00 -5°C° 0 mm 6 mps 713 mmHg 81%
    03:00 -5°C° 0 mm 6 mps 713 mmHg 81%
    04:00 -5°C° 0 mm 6 mps 713 mmHg 83%
    05:00 -4°C° 0 mm 6 mps 713 mmHg 85%
    06:00 -4°C° 0 mm 5 mps 713 mmHg 86%
    07:00 -4°C° 0 mm 5 mps 713 mmHg 87%
    08:00 -2°C° 0 mm 5 mps 713 mmHg 88%
    09:00 -2°C° 0 mm 5 mps 713 mmHg 89%
    10:00 -2°C° 0.2 mm 5 mps 713 mmHg 88%
    11:00 -1°C° 0.2 mm 5 mps 713 mmHg 88%
    12:00 -1°C° 0.2 mm 5 mps 713 mmHg 87%
    13:00 -1°C° 0.2 mm 5 mps 712 mmHg 89%
    14:00 -1°C° 0.2 mm 4 mps 712 mmHg 91%
    15:00 0°C° 0.2 mm 3 mps 712 mmHg 93%
    16:00 -1°C° 0.2 mm 4 mps 713 mmHg 92%
    17:00 -2°C° 0.2 mm 4 mps 714 mmHg 91%
    18:00 -2°C° 0.2 mm 5 mps 714 mmHg 90%
    19:00 -4°C° 0 mm 5 mps 715 mmHg 89%
    20:00 -4°C° 0 mm 5 mps 717 mmHg 87%
    21:00 -5°C° 0 mm 5 mps 718 mmHg 86%
    22:00 -5°C° 0 mm 5 mps 718 mmHg 85%
    23:00 -5°C° 0 mm 6 mps 719 mmHg 84%

    15 December, Friday

    Time Temperature Precipitation Wind Pressure Humidity
    00:00 -5°C° 0 mm 6 mps 720 mmHg 84%
    01:00 -4°C° 0.1 mm 7 mps 720 mmHg 83%
    02:00 -5°C° 0.1 mm 8 mps 720 mmHg 82%
    03:00 -4°C° 0.1 mm 9 mps 721 mmHg 81%
    04:00 -3°C° 0.2 mm 9 mps 721 mmHg 81%
    05:00 -3°C° 0.2 mm 9 mps 722 mmHg 81%
    06:00 -3°C° 0.2 mm 9 mps 723 mmHg 81%
    07:00 -2°C° 0 mm 8 mps 724 mmHg 81%
    08:00 -4°C° 0 mm 8 mps 725 mmHg 81%
    09:00 -4°C° 0 mm 7 mps 726 mmHg 81%
    10:00 -3°C° 0 mm 7 mps 727 mmHg 81%
    11:00 -3°C° 0 mm 7 mps 727 mmHg 80%
    12:00 -2°C° 0 mm 7 mps 728 mmHg 79%
    13:00 -3°C° 0 mm 7 mps 728 mmHg 81%
    14:00 -3°C° 0 mm 6 mps 729 mmHg 82%
    15:00 -3°C° 0 mm 6 mps 729 mmHg 83%
    16:00 -4°C° 0 mm 6 mps 729 mmHg 85%
    17:00 -4°C° 0 mm 6 mps 730 mmHg 86%
    18:00 -5°C° 0 mm 5 mps 730 mmHg 88%
    19:00 -5°C° 0 mm 6 mps 731 mmHg 87%
    20:00 -5°C° 0 mm 6 mps 731 mmHg 87%
    21:00 -5°C° 0 mm 6 mps 732 mmHg 86%
    22:00 -5°C° 0 mm 6 mps 732 mmHg 86%
    23:00 -5°C° 0 mm 5 mps 732 mmHg 86%

    16 December, Saturday

    Time Temperature Precipitation Wind Pressure Humidity
    00:00 -5°C° 0 mm 5 mps 733 mmHg 86%
    01:00 -5°C° 0 mm 5 mps 733 mmHg 86%
    02:00 -5°C° 0 mm 5 mps 733 mmHg 86%
    03:00 -5°C° 0 mm 5 mps 733 mmHg 86%
    04:00 -5°C° 0 mm 5 mps 733 mmHg 87%
    05:00 -4°C° 0 mm 4 mps 733 mmHg 88%
    06:00 -4°C° 0 mm 4 mps 733 mmHg 89%
    07:00 -4°C° 0 mm 4 mps 733 mmHg 89%
    08:00 -4°C° 0 mm 5 mps 733 mmHg 89%
    09:00 -2°C° 0 mm 5 mps 733 mmHg 89%
    10:00 -2°C° 0.1 mm 5 mps 732 mmHg 90%
    11:00 -2°C° 0.1 mm 6 mps 732 mmHg 90%
    12:00 -1°C° 0.1 mm 7 mps 732 mmHg 91%
    13:00 -1°C° 0.1 mm 6 mps 731 mmHg 92%
    14:00 -1°C° 0.1 mm 6 mps 731 mmHg 93%
    15:00 0°C° 0.1 mm 5 mps 730 mmHg 94%
    16:00 0°C° 0.2 mm 5 mps 730 mmHg 95%
    17:00 0°C° 0.2 mm 4 mps 730 mmHg 95%
    18:00 -1°C° 0.2 mm 4 mps 730 mmHg 95%
    19:00 0°C° 0.2 mm 3 mps 730 mmHg 96%
    20:00 0°C° 0.2 mm 3 mps 730 mmHg 96%
    21:00 0°C° 0.2 mm 3 mps 730 mmHg 96%
    22:00 0°C° 0 mm 3 mps 730 mmHg 96%
    23:00 +1°C° 0 mm 2 mps 730 mmHg 96%
    Show more